Time,TemperatureF,DewpointF,PressureIn,WindDirection,WindDirectionDegrees,WindSpeedMPH,WindSpeedGustMPH,Humidity,HourlyPrecipIn,Conditions,Clouds,dailyrainin,SoftwareType,DateUTC
2013-01-14 00:04:00,7.3,-0.4,28.91,NW,315,0.0,0.0,70,0.00,,,0.00,WUHU216HW,2013-01-14 06:04:00,
2013-01-14 00:09:00,7.3,-0.4,28.91,NW,315,0.0,0.0,70,0.00,,,0.00,WUHU216HW,2013-01-14 06:09:00,
2013-01-14 00:14:00,7.5,-0.2,28.90,NW,315,0.0,0.0,70,0.00,,,0.00,WUHU216HW,2013-01-14 06:14:00,
2013-01-14 00:19:00,7.7,0.2,28.91,NW,315,0.0,0.0,71,0.00,,,0.00,WUHU216HW,2013-01-14 06:19:00,
2013-01-14 00:24:00,7.7,0.2,28.90,NW,315,0.0,0.0,71,0.00,,,0.00,WUHU216HW,2013-01-14 06:24:00,
2013-01-14 00:29:00,7.5,0.0,28.90,NW,315,0.0,0.0,71,0.00,,,0.00,WUHU216HW,2013-01-14 06:29:00,
2013-01-14 00:34:00,7.5,-0.2,28.90,NW,315,0.0,0.0,70,0.00,,,0.00,WUHU216HW,2013-01-14 06:34:00,
2013-01-14 00:39:00,7.1,-0.5,28.91,NW,315,0.0,0.0,70,0.00,,,0.00,WUHU216HW,2013-01-14 06:39:00,
2013-01-14 00:44:00,6.9,-0.7,28.91,NW,315,0.0,0.0,70,0.00,,,0.00,WUHU216HW,2013-01-14 06:44:00,
2013-01-14 00:49:00,6.6,-1.1,28.91,NW,315,0.0,0.0,70,0.00,,,0.00,WUHU216HW,2013-01-14 06:49:00,
2013-01-14 00:54:00,6.6,-0.8,28.90,NW,315,0.0,0.0,71,0.00,,,0.00,WUHU216HW,2013-01-14 06:54:00,
2013-01-14 00:59:00,6.6,-0.8,28.90,NW,315,0.0,0.0,71,0.00,,,0.00,WUHU216HW,2013-01-14 06:59:00,
2013-01-14 01:04:00,6.6,-0.8,28.91,NW,315,0.0,0.0,71,0.00,,,0.00,WUHU216HW,2013-01-14 07:04:00,
2013-01-14 01:09:00,6.6,-0.8,28.91,NW,315,0.0,0.0,71,0.00,,,0.00,WUHU216HW,2013-01-14 07:09:00,
2013-01-14 01:14:00,6.4,-1.0,28.91,NW,315,0.0,0.0,71,0.00,,,0.00,WUHU216HW,2013-01-14 07:14:00,
2013-01-14 01:19:00,6.4,-1.0,28.91,NW,315,0.0,0.0,71,0.00,,,0.00,WUHU216HW,2013-01-14 07:19:00,
2013-01-14 01:24:00,6.4,-1.0,28.91,NW,315,0.0,0.0,71,0.00,,,0.00,WUHU216HW,2013-01-14 07:24:00,
2013-01-14 01:30:00,6.6,-0.8,28.91,NW,315,0.0,0.0,71,0.00,,,0.00,WUHU216HW,2013-01-14 07:30:00,
2013-01-14 01:35:00,6.6,-0.8,28.91,NW,315,0.0,0.0,71,0.00,,,0.00,WUHU216HW,2013-01-14 07:35:00,
2013-01-14 01:40:00,6.4,-1.0,28.91,NW,315,0.0,0.0,71,0.00,,,0.00,WUHU216HW,2013-01-14 07:40:00,
2013-01-14 01:45:00,6.4,-1.0,28.91,NW,315,0.0,0.0,71,0.00,,,0.00,WUHU216HW,2013-01-14 07:45:00,
2013-01-14 01:50:00,6.4,-1.0,28.91,NW,315,0.0,0.0,71,0.00,,,0.00,WUHU216HW,2013-01-14 07:50:00,
2013-01-14 01:55:00,6.6,-0.8,28.92,NW,315,0.0,0.0,71,0.00,,,0.00,WUHU216HW,2013-01-14 07:55:00,
2013-01-14 02:00:00,7.1,0.0,28.92,NW,315,0.0,0.0,72,0.00,,,0.00,WUHU216HW,2013-01-14 08:00:00,
2013-01-14 02:05:00,7.1,0.0,28.91,NW,315,0.0,0.0,72,0.00,,,0.00,WUHU216HW,2013-01-14 08:05:00,
2013-01-14 02:10:00,7.3,0.4,28.92,NW,315,0.0,0.0,73,0.00,,,0.00,WUHU216HW,2013-01-14 08:10:00,
2013-01-14 02:15:00,7.5,0.6,28.93,NW,315,0.0,0.0,73,0.00,,,0.00,WUHU216HW,2013-01-14 08:15:00,
2013-01-14 02:20:00,7.5,0.6,28.93,NW,315,0.0,0.0,73,0.00,,,0.00,WUHU216HW,2013-01-14 08:20:00,
2013-01-14 02:25:00,7.5,0.6,28.93,NW,315,0.0,0.0,73,0.00,,,0.00,WUHU216HW,2013-01-14 08:25:00,
2013-01-14 02:30:00,7.5,0.6,28.93,NW,315,0.0,0.0,73,0.00,,,0.00,WUHU216HW,2013-01-14 08:30:00,
2013-01-14 02:35:00,7.5,0.6,28.93,NW,315,0.0,0.0,73,0.00,,,0.00,WUHU216HW,2013-01-14 08:35:00,
2013-01-14 02:40:00,7.3,0.4,28.94,NW,315,0.0,0.0,73,0.00,,,0.00,WUHU216HW,2013-01-14 08:40:00,
2013-01-14 02:45:00,7.1,0.2,28.94,NW,315,0.0,0.0,73,0.00,,,0.00,WUHU216HW,2013-01-14 08:45:00,
2013-01-14 02:51:00,7.1,0.2,28.94,NW,315,0.0,0.0,73,0.00,,,0.00,WUHU216HW,2013-01-14 08:51:00,
2013-01-14 02:56:00,6.9,0.1,28.94,NW,315,0.0,0.0,73,0.00,,,0.00,WUHU216HW,2013-01-14 08:56:00,
2013-01-14 03:01:00,6.9,0.1,28.94,NW,315,0.0,0.0,73,0.00,,,0.00,WUHU216HW,2013-01-14 09:01:00,
2013-01-14 03:06:00,6.6,-0.2,28.94,NW,315,0.0,0.0,73,0.00,,,0.00,WUHU216HW,2013-01-14 09:06:00,
2013-01-14 03:11:00,6.6,-0.5,28.94,NW,315,0.0,0.0,72,0.00,,,0.00,WUHU216HW,2013-01-14 09:11:00,
2013-01-14 03:16:00,6.4,-0.7,28.94,NW,315,0.0,0.0,72,0.00,,,0.00,WUHU216HW,2013-01-14 09:16:00,
2013-01-14 03:21:00,6.6,-0.5,28.94,NW,315,0.0,0.0,72,0.00,,,0.00,WUHU216HW,2013-01-14 09:21:00,
2013-01-14 03:26:00,6.6,-0.2,28.94,NW,315,0.0,0.0,73,0.00,,,0.00,WUHU216HW,2013-01-14 09:26:00,
2013-01-14 03:31:00,6.6,-0.2,28.94,NW,315,0.0,0.0,73,0.00,,,0.00,WUHU216HW,2013-01-14 09:31:00,
2013-01-14 03:36:00,6.4,-0.4,28.94,NW,315,0.0,0.0,73,0.00,,,0.00,WUHU216HW,2013-01-14 09:36:00,
2013-01-14 03:41:00,6.4,-0.4,28.94,NW,315,0.0,0.0,73,0.00,,,0.00,WUHU216HW,2013-01-14 09:41:00,
2013-01-14 03:46:00,6.0,-0.7,28.94,NW,315,0.0,0.0,73,0.00,,,0.00,WUHU216HW,2013-01-14 09:46:00,
2013-01-14 03:51:00,6.0,-0.7,28.94,NW,315,0.0,0.0,73,0.00,,,0.00,WUHU216HW,2013-01-14 09:51:00,
2013-01-14 03:57:00,6.0,-0.7,28.95,NW,315,0.0,0.0,73,0.00,,,0.00,WUHU216HW,2013-01-14 09:57:00,
2013-01-14 04:02:00,6.0,-0.7,28.94,NW,315,0.0,0.0,73,0.00,,,0.00,WUHU216HW,2013-01-14 10:02:00,
2013-01-14 04:07:00,6.0,-0.7,28.94,NW,315,0.0,0.0,73,0.00,,,0.00,WUHU216HW,2013-01-14 10:07:00,
2013-01-14 04:12:00,6.0,-0.7,28.94,NW,315,0.0,0.0,73,0.00,,,0.00,WUHU216HW,2013-01-14 10:12:00,
2013-01-14 04:17:00,6.0,-0.7,28.94,NW,315,0.0,0.0,73,0.00,,,0.00,WUHU216HW,2013-01-14 10:17:00,
2013-01-14 04:22:00,6.0,-0.7,28.94,NW,315,0.0,0.0,73,0.00,,,0.00,WUHU216HW,2013-01-14 10:22:00,
2013-01-14 04:27:00,6.0,-0.7,28.94,NW,315,0.0,0.0,73,0.00,,,0.00,WUHU216HW,2013-01-14 10:27:00,
2013-01-14 04:32:00,6.0,-0.7,28.94,NW,315,0.0,0.0,73,0.00,,,0.00,WUHU216HW,2013-01-14 10:32:00,
2013-01-14 04:37:00,6.0,-0.7,28.94,NW,315,0.0,0.0,73,0.00,,,0.00,WUHU216HW,2013-01-14 10:37:00,
2013-01-14 04:42:00,6.0,-0.7,28.93,NW,315,0.0,0.0,73,0.00,,,0.00,WUHU216HW,2013-01-14 10:42:00,
2013-01-14 04:47:00,5.9,-0.9,28.94,NW,315,0.0,0.0,73,0.00,,,0.00,WUHU216HW,2013-01-14 10:47:00,
2013-01-14 04:52:00,5.9,-0.9,28.94,NW,315,0.0,0.0,73,0.00,,,0.00,WUHU216HW,2013-01-14 10:52:00,
2013-01-14 04:57:00,5.9,-0.9,28.94,NW,315,0.0,0.0,73,0.00,,,0.00,WUHU216HW,2013-01-14 10:57:00,
2013-01-14 05:02:00,5.9,-0.9,28.94,NW,315,0.0,0.0,73,0.00,,,0.00,WUHU216HW,2013-01-14 11:02:00,
2013-01-14 05:07:00,6.0,-0.5,28.94,NW,315,0.0,0.0,74,0.00,,,0.00,WUHU216HW,2013-01-14 11:07:00,
2013-01-14 05:13:00,5.9,-0.9,28.94,NW,315,0.0,0.0,73,0.00,,,0.00,WUHU216HW,2013-01-14 11:13:00,
2013-01-14 05:18:00,5.7,-0.8,28.94,NW,315,0.0,0.0,74,0.00,,,0.00,WUHU216HW,2013-01-14 11:18:00,
2013-01-14 05:23:00,5.7,-0.8,28.94,NW,315,0.0,0.0,74,0.00,,,0.00,WUHU216HW,2013-01-14 11:23:00,
2013-01-14 05:28:00,5.7,-0.8,28.94,NW,315,0.0,0.0,74,0.00,,,0.00,WUHU216HW,2013-01-14 11:28:00,
2013-01-14 05:33:00,5.9,-0.6,28.94,NW,315,0.0,0.0,74,0.00,,,0.00,WUHU216HW,2013-01-14 11:33:00,
2013-01-14 05:38:00,6.0,-0.5,28.94,NW,315,0.0,0.0,74,0.00,,,0.00,WUHU216HW,2013-01-14 11:38:00,
2013-01-14 05:43:00,6.0,-0.5,28.94,NW,315,0.0,0.0,74,0.00,,,0.00,WUHU216HW,2013-01-14 11:43:00,
2013-01-14 05:48:00,6.0,-0.5,28.94,NW,315,0.0,0.0,74,0.00,,,0.00,WUHU216HW,2013-01-14 11:48:00,
2013-01-14 05:53:00,6.0,-0.5,28.95,NW,315,0.0,0.0,74,0.00,,,0.00,WUHU216HW,2013-01-14 11:53:00,
2013-01-14 05:58:00,6.0,-0.5,28.95,NW,315,0.0,0.0,74,0.00,,,0.00,WUHU216HW,2013-01-14 11:58:00,
2013-01-14 06:03:00,6.0,-0.2,28.95,NW,315,0.0,0.0,75,0.00,,,0.00,WUHU216HW,2013-01-14 12:03:00,
2013-01-14 06:08:00,6.0,-0.2,28.95,NW,315,0.0,0.0,75,0.00,,,0.00,WUHU216HW,2013-01-14 12:08:00,
2013-01-14 06:13:00,6.0,-0.2,28.96,NW,315,0.0,0.0,75,0.00,,,0.00,WUHU216HW,2013-01-14 12:13:00,
2013-01-14 06:18:00,6.0,-0.2,28.96,NW,315,0.0,0.0,75,0.00,,,0.00,WUHU216HW,2013-01-14 12:18:00,
2013-01-14 06:23:00,6.0,-0.2,28.96,NW,315,0.0,0.0,75,0.00,,,0.00,WUHU216HW,2013-01-14 12:23:00,
2013-01-14 06:29:00,6.0,-0.2,28.96,NW,315,0.0,0.0,75,0.00,,,0.00,WUHU216HW,2013-01-14 12:29:00,
2013-01-14 06:34:00,6.4,0.0,28.96,NW,315,0.0,0.0,75,0.00,,,0.00,WUHU216HW,2013-01-14 12:34:00,
2013-01-14 06:39:00,6.0,-0.2,28.96,NW,315,0.0,0.0,75,0.00,,,0.00,WUHU216HW,2013-01-14 12:39:00,
2013-01-14 06:44:00,6.0,-0.2,28.97,NW,315,0.0,0.0,75,0.00,,,0.00,WUHU216HW,2013-01-14 12:44:00,
2013-01-14 06:49:00,6.0,-0.2,28.97,NW,315,0.0,0.0,75,0.00,,,0.00,WUHU216HW,2013-01-14 12:49:00,
2013-01-14 06:54:00,5.7,-0.5,28.97,NW,315,0.0,0.0,75,0.00,,,0.00,WUHU216HW,2013-01-14 12:54:00,
2013-01-14 06:59:00,6.0,-0.2,28.98,NW,315,0.0,0.0,75,0.00,,,0.00,WUHU216HW,2013-01-14 12:59:00,
2013-01-14 07:04:00,6.0,0.0,28.98,NW,315,0.0,0.0,76,0.00,,,0.00,WUHU216HW,2013-01-14 13:04:00,
2013-01-14 07:09:00,6.2,0.2,28.99,NW,315,0.0,0.0,76,0.00,,,0.00,WUHU216HW,2013-01-14 13:09:00,
2013-01-14 07:14:00,6.0,0.0,28.99,NW,315,0.0,0.0,76,0.00,,,0.00,WUHU216HW,2013-01-14 13:14:00,
2013-01-14 07:19:00,6.0,0.0,28.99,NW,315,0.0,0.0,76,0.00,,,0.00,WUHU216HW,2013-01-14 13:19:00,
2013-01-14 07:24:00,5.9,-0.1,28.99,NW,315,0.0,0.0,76,0.00,,,0.00,WUHU216HW,2013-01-14 13:24:00,
2013-01-14 07:29:00,5.7,-0.2,29.00,NW,315,0.0,0.0,76,0.00,,,0.00,WUHU216HW,2013-01-14 13:29:00,
2013-01-14 07:34:00,5.9,-0.1,29.00,NW,315,0.0,0.0,76,0.00,,,0.00,WUHU216HW,2013-01-14 13:34:00,
2013-01-14 07:39:00,5.9,-0.1,29.00,NW,315,0.0,0.0,76,0.00,,,0.00,WUHU216HW,2013-01-14 13:39:00,
2013-01-14 07:44:00,5.9,-0.1,29.00,NW,315,0.0,0.0,76,0.00,,,0.00,WUHU216HW,2013-01-14 13:44:00,
2013-01-14 07:49:00,5.9,-0.1,29.00,NW,315,0.0,0.0,76,0.00,,,0.00,WUHU216HW,2013-01-14 13:49:00,
2013-01-14 07:54:00,5.9,-0.1,29.00,NW,315,0.0,0.0,76,0.00,,,0.00,WUHU216HW,2013-01-14 13:54:00,
2013-01-14 08:00:00,5.9,-0.1,29.01,NW,315,0.0,0.0,76,0.00,,,0.00,WUHU216HW,2013-01-14 14:00:00,
2013-01-14 08:05:00,5.9,-0.1,29.01,NW,315,0.0,0.0,76,0.00,,,0.00,WUHU216HW,2013-01-14 14:05:00,
2013-01-14 08:10:00,5.7,-0.2,29.01,NW,315,0.0,0.0,76,0.00,,,0.00,WUHU216HW,2013-01-14 14:10:00,
2013-01-14 08:15:00,6.0,0.0,29.01,NW,315,0.0,0.0,76,0.00,,,0.00,WUHU216HW,2013-01-14 14:15:00,
2013-01-14 08:20:00,6.0,0.0,29.01,NW,315,0.0,0.0,76,0.00,,,0.00,WUHU216HW,2013-01-14 14:20:00,
2013-01-14 08:25:00,6.0,0.0,29.01,NW,315,0.0,0.0,76,0.00,,,0.00,WUHU216HW,2013-01-14 14:25:00,
2013-01-14 08:30:00,6.0,0.0,29.01,NW,315,0.0,0.0,76,0.00,,,0.00,WUHU216HW,2013-01-14 14:30:00,
2013-01-14 08:35:00,6.4,0.4,29.02,NW,315,0.0,0.0,76,0.00,,,0.00,WUHU216HW,2013-01-14 14:35:00,
2013-01-14 08:40:00,6.6,0.6,29.02,NW,315,0.0,0.0,76,0.00,,,0.00,WUHU216HW,2013-01-14 14:40:00,
2013-01-14 08:45:00,6.9,0.9,29.02,NW,315,0.0,0.0,76,0.00,,,0.00,WUHU216HW,2013-01-14 14:45:00,
2013-01-14 08:50:00,7.1,1.2,29.02,NW,315,0.0,0.0,77,0.00,,,0.00,WUHU216HW,2013-01-14 14:50:00,
2013-01-14 08:55:00,7.5,1.7,29.02,NW,315,0.0,0.0,77,0.00,,,0.00,WUHU216HW,2013-01-14 14:55:00,
2013-01-14 09:00:00,8.2,2.5,29.02,NW,315,0.0,0.0,77,0.00,,,0.00,WUHU216HW,2013-01-14 15:00:00,
2013-01-14 09:06:00,8.7,3.0,29.02,NW,315,0.0,0.0,77,0.00,,,0.00,WUHU216HW,2013-01-14 15:06:00,
2013-01-14 09:11:00,9.6,3.8,29.03,NW,315,0.0,0.0,77,0.00,,,0.00,WUHU216HW,2013-01-14 15:11:00,
2013-01-14 09:16:00,10.0,4.1,29.03,NW,315,0.0,0.0,77,0.00,,,0.00,WUHU216HW,2013-01-14 15:16:00,
2013-01-14 09:21:00,10.7,4.8,29.03,NW,315,0.0,0.0,77,0.00,,,0.00,WUHU216HW,2013-01-14 15:21:00,
2013-01-14 09:26:00,11.1,5.2,29.03,NW,315,0.0,0.0,77,0.00,,,0.00,WUHU216HW,2013-01-14 15:26:00,
2013-01-14 09:31:00,11.8,5.6,29.03,NW,315,0.0,0.0,76,0.00,,,0.00,WUHU216HW,2013-01-14 15:31:00,
2013-01-14 09:36:00,12.5,6.3,29.04,NW,315,0.0,0.0,76,0.00,,,0.00,WUHU216HW,2013-01-14 15:36:00,
2013-01-14 09:41:00,12.9,6.7,29.03,NW,315,0.0,0.0,76,0.00,,,0.00,WUHU216HW,2013-01-14 15:41:00,
2013-01-14 09:46:00,13.2,6.8,29.03,NW,315,0.0,0.0,75,0.00,,,0.00,WUHU216HW,2013-01-14 15:46:00,
2013-01-14 09:51:00,13.6,7.1,29.03,NW,315,0.0,0.0,75,0.00,,,0.00,WUHU216HW,2013-01-14 15:51:00,
2013-01-14 09:56:00,13.8,7.3,29.03,NW,315,0.0,0.0,75,0.00,,,0.00,WUHU216HW,2013-01-14 15:56:00,
2013-01-14 10:01:00,14.5,8.0,29.03,NW,315,0.0,0.0,75,0.00,,,0.00,WUHU216HW,2013-01-14 16:01:00,
2013-01-14 10:06:00,14.7,7.8,29.03,NW,315,0.0,0.0,74,0.00,,,0.00,WUHU216HW,2013-01-14 16:06:00,
2013-01-14 10:11:00,15.0,8.2,29.02,NW,315,0.0,0.0,74,0.00,,,0.00,WUHU216HW,2013-01-14 16:11:00,
2013-01-14 10:16:00,15.6,8.7,29.03,NW,315,0.0,0.0,74,0.00,,,0.00,WUHU216HW,2013-01-14 16:16:00,
2013-01-14 10:21:00,16.1,8.9,29.03,NW,315,0.0,0.0,73,0.00,,,0.00,WUHU216HW,2013-01-14 16:21:00,
2013-01-14 10:26:00,16.3,9.1,29.03,NW,315,0.0,0.0,73,0.00,,,0.00,WUHU216HW,2013-01-14 16:26:00,
2013-01-14 10:31:00,17.2,10.0,29.03,NW,315,0.0,0.0,73,0.00,,,0.00,WUHU216HW,2013-01-14 16:31:00,
2013-01-14 10:36:00,17.7,10.5,29.02,NW,315,0.0,0.0,73,0.00,,,0.00,WUHU216HW,2013-01-14 16:36:00,
2013-01-14 10:41:00,18.1,10.5,29.02,NW,315,0.0,0.0,72,0.00,,,0.00,WUHU216HW,2013-01-14 16:41:00,
2013-01-14 10:46:00,18.6,11.0,29.02,NW,315,0.0,0.0,72,0.00,,,0.00,WUHU216HW,2013-01-14 16:46:00,
2013-01-14 10:52:00,19.0,11.0,29.02,NW,315,0.0,0.0,71,0.00,,,0.00,WUHU216HW,2013-01-14 16:52:00,
2013-01-14 10:57:00,19.4,11.4,29.02,NW,315,0.0,0.0,71,0.00,,,0.00,WUHU216HW,2013-01-14 16:57:00,
2013-01-14 11:02:00,19.7,11.4,29.02,NW,315,0.0,0.0,70,0.00,,,0.00,WUHU216HW,2013-01-14 17:02:00,
2013-01-14 11:07:00,20.1,11.4,29.02,NW,315,0.0,0.0,69,0.00,,,0.00,WUHU216HW,2013-01-14 17:07:00,
2013-01-14 11:12:00,20.3,11.6,29.01,NW,315,0.0,0.0,69,0.00,,,0.00,WUHU216HW,2013-01-14 17:12:00,
2013-01-14 11:17:00,20.8,12.2,29.02,NW,315,0.0,0.0,69,0.00,,,0.00,WUHU216HW,2013-01-14 17:17:00,
2013-01-14 11:22:00,21.0,12.0,29.01,NW,315,0.0,0.0,68,0.00,,,0.00,WUHU216HW,2013-01-14 17:22:00,
2013-01-14 11:27:00,21.5,12.5,29.01,NW,315,0.0,0.0,68,0.00,,,0.00,WUHU216HW,2013-01-14 17:27:00,
2013-01-14 11:32:00,21.9,12.9,29.01,NW,315,0.0,0.0,68,0.00,,,0.00,WUHU216HW,2013-01-14 17:32:00,
2013-01-14 11:37:00,22.2,13.6,29.01,NW,315,0.0,0.0,68,0.00,,,0.00,WUHU216HW,2013-01-14 17:37:00,
2013-01-14 11:42:00,22.8,13.4,29.01,West,270,0.0,0.0,67,0.00,,,0.00,WUHU216HW,2013-01-14 17:42:00,
2013-01-14 11:47:00,23.0,13.6,29.00,SW,225,8.7,8.7,67,0.00,,,0.00,WUHU216HW,2013-01-14 17:47:00,
2013-01-14 11:52:00,23.1,13.8,28.99,WSW,248,2.0,8.7,67,0.00,,,0.00,WUHU216HW,2013-01-14 17:52:00,
2013-01-14 11:57:00,23.5,13.7,28.99,SW,225,7.6,7.6,66,0.00,,,0.00,WUHU216HW,2013-01-14 17:57:00,
2013-01-14 12:02:00,23.7,13.9,28.98,SW,225,8.5,8.5,66,0.00,,,0.00,WUHU216HW,2013-01-14 18:02:00,
2013-01-14 12:08:00,23.9,13.7,28.98,WSW,248,5.5,8.5,65,0.00,,,0.00,WUHU216HW,2013-01-14 18:08:00,
2013-01-14 12:13:00,24.0,13.9,28.98,SW,225,7.1,7.8,65,0.00,,,0.00,WUHU216HW,2013-01-14 18:13:00,
2013-01-14 12:18:00,24.4,14.2,28.97,SW,225,6.7,7.8,65,0.00,,,0.00,WUHU216HW,2013-01-14 18:18:00,
2013-01-14 12:23:00,24.6,13.7,28.97,WSW,248,6.9,7.3,63,0.00,,,0.00,WUHU216HW,2013-01-14 18:23:00,
2013-01-14 12:28:00,24.6,13.7,28.97,WSW,248,6.4,6.9,63,0.00,,,0.00,WUHU216HW,2013-01-14 18:28:00,
2013-01-14 12:33:00,24.9,14.1,28.96,WSW,248,1.5,7.1,63,0.00,,,0.00,WUHU216HW,2013-01-14 18:33:00,
2013-01-14 12:38:00,25.1,14.2,28.96,SW,225,0.0,7.1,63,0.00,,,0.00,WUHU216HW,2013-01-14 18:38:00,
2013-01-14 12:43:00,25.3,14.4,28.96,SW,225,6.9,6.9,63,0.00,,,0.00,WUHU216HW,2013-01-14 18:43:00,
2013-01-14 12:48:00,25.8,14.5,28.96,West,270,6.2,8.2,62,0.00,,,0.00,WUHU216HW,2013-01-14 18:48:00,
2013-01-14 12:53:00,26.0,14.3,28.95,West,270,0.0,8.2,61,0.00,,,0.00,WUHU216HW,2013-01-14 18:53:00,
2013-01-14 12:58:00,26.4,14.7,28.95,WSW,248,6.9,6.9,61,0.00,,,0.00,WUHU216HW,2013-01-14 18:58:00,
2013-01-14 13:03:00,26.6,14.1,28.95,WSW,248,0.0,7.1,59,0.00,,,0.00,WUHU216HW,2013-01-14 19:03:00,
2013-01-14 13:08:00,26.7,14.3,28.94,WSW,248,2.9,8.9,59,0.00,,,0.00,WUHU216HW,2013-01-14 19:08:00,
2013-01-14 13:13:00,26.7,13.8,28.94,SW,225,6.2,8.9,58,0.00,,,0.00,WUHU216HW,2013-01-14 19:13:00,
2013-01-14 13:18:00,26.9,14.0,28.94,WSW,248,0.0,9.3,58,0.00,,,0.00,WUHU216HW,2013-01-14 19:18:00,
2013-01-14 13:24:00,27.1,14.2,28.94,WSW,248,0.0,9.3,58,0.00,,,0.00,WUHU216HW,2013-01-14 19:24:00,
2013-01-14 13:29:00,27.1,13.8,28.93,WSW,248,0.0,1.7,57,0.00,,,0.00,WUHU216HW,2013-01-14 19:29:00,
2013-01-14 13:34:00,27.5,14.1,28.93,WSW,248,9.3,9.3,57,0.00,,,0.00,WUHU216HW,2013-01-14 19:34:00,
2013-01-14 13:39:00,27.6,13.9,28.93,WSW,248,7.3,9.3,56,0.00,,,0.00,WUHU216HW,2013-01-14 19:39:00,
2013-01-14 13:44:00,27.5,13.7,28.93,WSW,248,6.9,9.3,56,0.00,,,0.00,WUHU216HW,2013-01-14 19:44:00,
2013-01-14 13:49:00,27.5,13.7,28.93,SW,225,8.5,9.1,56,0.00,,,0.00,WUHU216HW,2013-01-14 19:49:00,
2013-01-14 13:54:00,27.5,13.3,28.93,WSW,248,1.5,8.5,55,0.00,,,0.00,WUHU216HW,2013-01-14 19:54:00,
2013-01-14 13:59:00,27.6,13.5,28.94,WSW,248,6.7,7.1,55,0.00,,,0.00,WUHU216HW,2013-01-14 19:59:00,
2013-01-14 14:04:00,27.6,13.5,28.93,WSW,248,6.9,6.9,55,0.00,,,0.00,WUHU216HW,2013-01-14 20:04:00,
2013-01-14 14:09:00,27.6,13.9,28.94,WSW,248,3.8,6.9,56,0.00,,,0.00,WUHU216HW,2013-01-14 20:09:00,
2013-01-14 14:14:00,28.0,13.9,28.93,WSW,248,0.0,8.7,55,0.00,,,0.00,WUHU216HW,2013-01-14 20:14:00,
2013-01-14 14:19:00,28.0,13.9,28.93,WSW,248,7.3,8.7,55,0.00,,,0.00,WUHU216HW,2013-01-14 20:19:00,
2013-01-14 14:24:00,28.2,14.0,28.93,WSW,248,0.0,7.3,55,0.00,,,0.00,WUHU216HW,2013-01-14 20:24:00,
2013-01-14 14:29:00,28.0,13.4,28.93,WSW,248,5.5,5.5,54,0.00,,,0.00,WUHU216HW,2013-01-14 20:29:00,
2013-01-14 14:34:00,27.6,13.1,28.93,WSW,248,0.0,8.9,54,0.00,,,0.00,WUHU216HW,2013-01-14 20:34:00,
2013-01-14 14:39:00,27.8,13.9,28.93,WSW,248,6.4,8.9,55,0.00,,,0.00,WUHU216HW,2013-01-14 20:39:00,
2013-01-14 14:44:00,28.0,13.4,28.93,WSW,248,8.7,8.7,54,0.00,,,0.00,WUHU216HW,2013-01-14 20:44:00,
2013-01-14 14:49:00,28.0,13.4,28.93,SW,225,6.0,8.7,54,0.00,,,0.00,WUHU216HW,2013-01-14 20:49:00,
2013-01-14 14:55:00,28.0,13.4,28.94,SW,225,4.2,8.7,54,0.00,,,0.00,WUHU216HW,2013-01-14 20:55:00,
2013-01-14 15:00:00,28.0,13.4,28.93,West,270,0.0,7.3,54,0.00,,,0.00,WUHU216HW,2013-01-14 21:00:00,
2013-01-14 15:05:00,28.0,13.0,28.93,West,270,6.2,6.2,53,0.00,,,0.00,WUHU216HW,2013-01-14 21:05:00,
2013-01-14 15:10:00,28.0,13.0,28.93,West,270,0.0,6.2,53,0.00,,,0.00,WUHU216HW,2013-01-14 21:10:00,
2013-01-14 15:15:00,28.0,13.0,28.94,WSW,248,0.0,7.1,53,0.00,,,0.00,WUHU216HW,2013-01-14 21:15:00,
2013-01-14 15:20:00,27.8,12.9,28.93,SW,225,6.4,7.1,53,0.00,,,0.00,WUHU216HW,2013-01-14 21:20:00,
2013-01-14 15:25:00,27.6,12.7,28.93,SW,225,5.1,6.4,53,0.00,,,0.00,WUHU216HW,2013-01-14 21:25:00,
2013-01-14 15:30:00,27.6,12.7,28.93,SW,225,3.1,7.1,53,0.00,,,0.00,WUHU216HW,2013-01-14 21:30:00,
2013-01-14 15:35:00,27.6,12.7,28.93,WSW,248,4.9,7.1,53,0.00,,,0.00,WUHU216HW,2013-01-14 21:35:00,
2013-01-14 15:40:00,27.5,12.5,28.93,WSW,248,0.0,4.9,53,0.00,,,0.00,WUHU216HW,2013-01-14 21:40:00,
2013-01-14 15:45:00,27.3,12.3,28.93,WSW,248,0.0,0.0,53,0.00,,,0.00,WUHU216HW,2013-01-14 21:45:00,
2013-01-14 15:50:00,27.3,12.3,28.93,WSW,248,0.0,1.7,53,0.00,,,0.00,WUHU216HW,2013-01-14 21:50:00,
2013-01-14 15:55:00,27.3,12.3,28.93,WSW,248,4.4,4.4,53,0.00,,,0.00,WUHU216HW,2013-01-14 21:55:00,
2013-01-14 16:00:00,27.3,12.3,28.93,WSW,248,0.0,4.4,53,0.00,,,0.00,WUHU216HW,2013-01-14 22:00:00,
2013-01-14 16:05:00,27.3,12.3,28.93,WSW,248,0.0,4.4,53,0.00,,,0.00,WUHU216HW,2013-01-14 22:05:00,
2013-01-14 16:10:00,27.1,12.1,28.93,WSW,248,0.0,0.0,53,0.00,,,0.00,WUHU216HW,2013-01-14 22:10:00,
2013-01-14 16:15:00,27.1,12.1,28.94,WSW,248,0.0,0.0,53,0.00,,,0.00,WUHU216HW,2013-01-14 22:15:00,
2013-01-14 16:20:00,27.1,12.1,28.93,WSW,248,0.0,0.0,53,0.00,,,0.00,WUHU216HW,2013-01-14 22:20:00,
2013-01-14 16:25:00,26.7,11.8,28.93,WSW,248,0.0,0.0,53,0.00,,,0.00,WUHU216HW,2013-01-14 22:25:00,
2013-01-14 16:30:00,26.7,12.2,28.94,WSW,248,0.0,0.0,54,0.00,,,0.00,WUHU216HW,2013-01-14 22:30:00,
2013-01-14 16:35:00,26.4,11.8,28.93,WSW,248,0.0,2.0,54,0.00,,,0.00,WUHU216HW,2013-01-14 22:35:00,
2013-01-14 16:40:00,26.6,12.0,28.93,WSW,248,0.0,2.0,54,0.00,,,0.00,WUHU216HW,2013-01-14 22:40:00,
2013-01-14 16:45:00,26.4,11.8,28.93,WSW,248,0.0,0.0,54,0.00,,,0.00,WUHU216HW,2013-01-14 22:45:00,
2013-01-14 16:50:00,26.2,12.1,28.93,WSW,248,0.0,0.0,55,0.00,,,0.00,WUHU216HW,2013-01-14 22:50:00,
2013-01-14 16:55:00,26.2,12.1,28.93,WSW,248,2.2,2.2,55,0.00,,,0.00,WUHU216HW,2013-01-14 22:55:00,
2013-01-14 17:01:00,25.8,11.8,28.93,WSW,248,0.0,2.2,55,0.00,,,0.00,WUHU216HW,2013-01-14 23:01:00,
2013-01-14 17:06:00,25.5,11.4,28.93,WSW,248,0.0,2.2,55,0.00,,,0.00,WUHU216HW,2013-01-14 23:06:00,
2013-01-14 17:11:00,25.1,11.5,28.93,WSW,248,0.0,0.0,56,0.00,,,0.00,WUHU216HW,2013-01-14 23:11:00,
2013-01-14 17:16:00,24.6,11.0,28.93,WSW,248,0.0,0.0,56,0.00,,,0.00,WUHU216HW,2013-01-14 23:16:00,
2013-01-14 17:21:00,23.9,10.4,28.93,WSW,248,0.0,0.0,56,0.00,,,0.00,WUHU216HW,2013-01-14 23:21:00,
2013-01-14 17:26:00,23.5,10.0,28.93,WSW,248,0.0,0.0,56,0.00,,,0.00,WUHU216HW,2013-01-14 23:26:00,
2013-01-14 17:31:00,22.8,9.7,28.93,WSW,248,0.0,0.0,57,0.00,,,0.00,WUHU216HW,2013-01-14 23:31:00,
2013-01-14 17:36:00,22.2,9.2,28.93,WSW,248,0.0,0.0,57,0.00,,,0.00,WUHU216HW,2013-01-14 23:36:00,
2013-01-14 17:41:00,21.9,9.3,28.93,WSW,248,0.0,0.0,58,0.00,,,0.00,WUHU216HW,2013-01-14 23:41:00,
2013-01-14 17:46:00,21.3,8.4,28.93,WSW,248,0.0,0.0,57,0.00,,,0.00,WUHU216HW,2013-01-14 23:46:00,
2013-01-14 17:51:00,21.0,8.4,28.94,WSW,248,0.0,0.0,58,0.00,,,0.00,WUHU216HW,2013-01-14 23:51:00,
2013-01-14 17:56:00,20.8,8.3,28.93,WSW,248,0.0,0.0,58,0.00,,,0.00,WUHU216HW,2013-01-14 23:56:00,
2013-01-14 18:01:00,20.3,8.1,28.93,WSW,248,0.0,0.0,59,0.00,,,0.00,WUHU216HW,2013-01-15 00:01:00,
2013-01-14 18:06:00,19.9,7.8,28.94,WSW,248,0.0,0.0,59,0.00,,,0.00,WUHU216HW,2013-01-15 00:06:00,
2013-01-14 18:11:00,19.5,7.4,28.94,WSW,248,0.0,0.0,59,0.00,,,0.00,WUHU216HW,2013-01-15 00:11:00,
2013-01-14 18:16:00,19.5,7.4,28.94,WSW,248,0.0,0.0,59,0.00,,,0.00,WUHU216HW,2013-01-15 00:16:00,
2013-01-14 18:21:00,19.2,7.1,28.94,WSW,248,0.0,0.0,59,0.00,,,0.00,WUHU216HW,2013-01-15 00:21:00,
2013-01-14 18:26:00,19.2,7.1,28.94,WSW,248,0.0,0.0,59,0.00,,,0.00,WUHU216HW,2013-01-15 00:26:00,
2013-01-14 18:31:00,19.0,7.3,28.94,WSW,248,0.0,0.0,60,0.00,,,0.00,WUHU216HW,2013-01-15 00:31:00,
2013-01-14 18:36:00,18.6,7.0,28.94,WSW,248,0.0,0.0,60,0.00,,,0.00,WUHU216HW,2013-01-15 00:36:00,
2013-01-14 18:41:00,18.5,6.8,28.94,WSW,248,0.0,0.0,60,0.00,,,0.00,WUHU216HW,2013-01-15 00:41:00,
2013-01-14 18:46:00,18.3,6.7,28.94,WSW,248,0.0,0.0,60,0.00,,,0.00,WUHU216HW,2013-01-15 00:46:00,
2013-01-14 18:51:00,18.1,6.5,28.94,WSW,248,0.0,0.0,60,0.00,,,0.00,WUHU216HW,2013-01-15 00:51:00,
2013-01-14 18:57:00,17.9,6.5,28.95,WSW,248,0.0,0.0,61,0.00,,,0.00,WUHU216HW,2013-01-15 00:57:00,
2013-01-14 19:02:00,17.7,6.5,28.94,WSW,248,0.0,0.0,61,0.00,,,0.00,WUHU216HW,2013-01-15 01:02:00,
2013-01-14 19:07:00,17.7,6.5,28.94,WSW,248,0.0,0.0,61,0.00,,,0.00,WUHU216HW,2013-01-15 01:07:00,
2013-01-14 19:12:00,17.7,6.5,28.94,WSW,248,0.0,0.0,61,0.00,,,0.00,WUHU216HW,2013-01-15 01:12:00,
2013-01-14 19:17:00,17.6,6.4,28.94,WSW,248,0.0,0.0,61,0.00,,,0.00,WUHU216HW,2013-01-15 01:17:00,
2013-01-14 19:22:00,17.6,6.4,28.94,WSW,248,0.0,0.0,61,0.00,,,0.00,WUHU216HW,2013-01-15 01:22:00,
2013-01-14 19:27:00,17.7,6.5,28.94,WSW,248,0.0,0.0,61,0.00,,,0.00,WUHU216HW,2013-01-15 01:27:00,
2013-01-14 19:32:00,17.7,6.9,28.94,WSW,248,0.0,0.0,62,0.00,,,0.00,WUHU216HW,2013-01-15 01:32:00,
2013-01-14 19:37:00,17.7,6.9,28.94,WSW,248,0.0,0.0,62,0.00,,,0.00,WUHU216HW,2013-01-15 01:37:00,
2013-01-14 19:42:00,17.4,6.5,28.94,WSW,248,0.0,0.0,62,0.00,,,0.00,WUHU216HW,2013-01-15 01:42:00,
2013-01-14 19:47:00,17.4,6.5,28.94,WSW,248,0.0,0.0,62,0.00,,,0.00,WUHU216HW,2013-01-15 01:47:00,
2013-01-14 19:52:00,17.4,6.5,28.94,WSW,248,0.0,0.0,62,0.00,,,0.00,WUHU216HW,2013-01-15 01:52:00,
2013-01-14 19:57:00,17.4,6.5,28.94,WSW,248,0.0,0.0,62,0.00,,,0.00,WUHU216HW,2013-01-15 01:57:00,
2013-01-14 20:02:00,17.4,6.5,28.94,WSW,248,0.0,0.0,62,0.00,,,0.00,WUHU216HW,2013-01-15 02:02:00,
2013-01-14 20:07:00,17.4,6.9,28.94,WSW,248,0.0,0.0,63,0.00,,,0.00,WUHU216HW,2013-01-15 02:07:00,
2013-01-14 20:12:00,17.4,6.9,28.94,WSW,248,0.0,0.0,63,0.00,,,0.00,WUHU216HW,2013-01-15 02:12:00,
2013-01-14 20:17:00,17.4,6.9,28.94,WSW,248,0.0,0.0,63,0.00,,,0.00,WUHU216HW,2013-01-15 02:17:00,
2013-01-14 20:22:00,17.4,6.9,28.94,WSW,248,0.0,0.0,63,0.00,,,0.00,WUHU216HW,2013-01-15 02:22:00,
2013-01-14 20:27:00,17.4,6.9,28.94,WSW,248,0.0,0.0,63,0.00,,,0.00,WUHU216HW,2013-01-15 02:27:00,
2013-01-14 20:32:00,17.4,6.9,28.94,WSW,248,0.0,0.0,63,0.00,,,0.00,WUHU216HW,2013-01-15 02:32:00,
2013-01-14 20:37:00,17.4,6.9,28.94,WSW,248,0.0,0.0,63,0.00,,,0.00,WUHU216HW,2013-01-15 02:37:00,
2013-01-14 20:42:00,17.4,6.9,28.94,WSW,248,0.0,0.0,63,0.00,,,0.00,WUHU216HW,2013-01-15 02:42:00,
2013-01-14 20:47:00,17.6,7.4,28.94,WSW,248,0.0,0.0,64,0.00,,,0.00,WUHU216HW,2013-01-15 02:47:00,
2013-01-14 20:52:00,17.7,7.6,28.94,WSW,248,0.0,0.0,64,0.00,,,0.00,WUHU216HW,2013-01-15 02:52:00,
2013-01-14 20:57:00,17.7,7.6,28.94,WSW,248,0.0,0.0,64,0.00,,,0.00,WUHU216HW,2013-01-15 02:57:00,
2013-01-14 21:02:00,17.9,7.7,28.93,WSW,248,0.0,0.0,64,0.00,,,0.00,WUHU216HW,2013-01-15 03:02:00,
2013-01-14 21:07:00,17.9,7.7,28.93,WSW,248,0.0,0.0,64,0.00,,,0.00,WUHU216HW,2013-01-15 03:07:00,
2013-01-14 21:12:00,17.9,7.7,28.93,WSW,248,0.0,0.0,64,0.00,,,0.00,WUHU216HW,2013-01-15 03:12:00,
2013-01-14 21:17:00,18.1,7.9,28.93,WSW,248,0.0,0.0,64,0.00,,,0.00,WUHU216HW,2013-01-15 03:17:00,
2013-01-14 21:23:00,18.1,7.9,28.93,WSW,248,0.0,0.0,64,0.00,,,0.00,WUHU216HW,2013-01-15 03:23:00,
2013-01-14 21:28:00,17.9,7.7,28.93,WSW,248,0.0,0.0,64,0.00,,,0.00,WUHU216HW,2013-01-15 03:28:00,
2013-01-14 21:33:00,17.9,7.7,28.93,WSW,248,0.0,0.0,64,0.00,,,0.00,WUHU216HW,2013-01-15 03:33:00,
2013-01-14 21:38:00,18.1,7.9,28.93,WSW,248,0.0,0.0,64,0.00,,,0.00,WUHU216HW,2013-01-15 03:38:00,
2013-01-14 21:43:00,18.1,8.2,28.93,WSW,248,0.0,0.0,65,0.00,,,0.00,WUHU216HW,2013-01-15 03:43:00,
2013-01-14 21:48:00,18.3,8.4,28.93,WSW,248,0.0,0.0,65,0.00,,,0.00,WUHU216HW,2013-01-15 03:48:00,
2013-01-14 21:53:00,18.5,8.6,28.93,WSW,248,0.0,0.0,65,0.00,,,0.00,WUHU216HW,2013-01-15 03:53:00,
2013-01-14 21:58:00,18.3,8.4,28.93,WSW,248,0.0,0.0,65,0.00,,,0.00,WUHU216HW,2013-01-15 03:58:00,
2013-01-14 22:03:00,18.3,8.4,28.93,WSW,248,0.0,0.0,65,0.00,,,0.00,WUHU216HW,2013-01-15 04:03:00,
2013-01-14 22:08:00,18.3,8.4,28.93,WSW,248,0.0,0.0,65,0.00,,,0.00,WUHU216HW,2013-01-15 04:08:00,
2013-01-14 22:13:00,18.5,8.6,28.93,WSW,248,0.0,0.0,65,0.00,,,0.00,WUHU216HW,2013-01-15 04:13:00,
2013-01-14 22:18:00,18.5,8.6,28.93,WSW,248,0.0,0.0,65,0.00,,,0.00,WUHU216HW,2013-01-15 04:18:00,
2013-01-14 22:23:00,18.5,8.6,28.93,WSW,248,0.0,0.0,65,0.00,,,0.00,WUHU216HW,2013-01-15 04:23:00,
2013-01-14 22:28:00,18.5,8.6,28.93,WSW,248,0.0,0.0,65,0.00,,,0.00,WUHU216HW,2013-01-15 04:28:00,
2013-01-14 22:33:00,18.6,8.7,28.93,WSW,248,0.0,0.0,65,0.00,,,0.00,WUHU216HW,2013-01-15 04:33:00,
2013-01-14 22:38:00,18.5,8.6,28.93,WSW,248,0.0,0.0,65,0.00,,,0.00,WUHU216HW,2013-01-15 04:38:00,
2013-01-14 22:43:00,18.5,8.6,28.93,WSW,248,0.0,0.0,65,0.00,,,0.00,WUHU216HW,2013-01-15 04:43:00,
2013-01-14 22:48:00,18.3,8.4,28.93,WSW,248,0.0,0.0,65,0.00,,,0.00,WUHU216HW,2013-01-15 04:48:00,
2013-01-14 22:53:00,18.3,8.4,28.93,WSW,248,0.0,0.0,65,0.00,,,0.00,WUHU216HW,2013-01-15 04:53:00,
2013-01-14 22:58:00,18.3,8.4,28.92,WSW,248,0.0,0.0,65,0.00,,,0.00,WUHU216HW,2013-01-15 04:58:00,
2013-01-14 23:00:00,18.3,8.4,28.92,WSW,248,0.0,0.0,65,0.00,,,0.00,WUHU216HW,2013-01-15 05:00:00,
2013-01-14 23:02:00,18.3,8.4,28.92,WSW,248,0.0,0.0,65,0.00,,,0.00,WUHU216HW,2013-01-15 05:02:00,
2013-01-14 23:03:00,18.3,8.4,28.93,WSW,248,0.0,0.0,65,0.00,,,0.00,WUHU216HW,2013-01-15 05:03:00,
2013-01-14 23:08:00,18.1,8.2,28.92,WSW,248,0.0,0.0,65,0.00,,,0.00,WUHU216HW,2013-01-15 05:08:00,
2013-01-14 23:13:00,17.9,8.1,28.93,WSW,248,0.0,0.0,65,0.00,,,0.00,WUHU216HW,2013-01-15 05:13:00,
2013-01-14 23:18:00,17.7,8.2,28.92,WSW,248,0.0,0.0,66,0.00,,,0.00,WUHU216HW,2013-01-15 05:18:00,
2013-01-14 23:23:00,17.7,8.2,28.92,WSW,248,0.0,0.0,66,0.00,,,0.00,WUHU216HW,2013-01-15 05:23:00,
2013-01-14 23:28:00,17.7,8.2,28.92,WSW,248,0.0,0.0,66,0.00,,,0.00,WUHU216HW,2013-01-15 05:28:00,
2013-01-14 23:33:00,17.7,8.2,28.92,WSW,248,0.0,0.0,66,0.00,,,0.00,WUHU216HW,2013-01-15 05:33:00,
2013-01-14 23:38:00,17.4,7.9,28.92,WSW,248,0.0,0.0,66,0.00,,,0.00,WUHU216HW,2013-01-15 05:38:00,
2013-01-14 23:43:00,17.2,7.7,28.92,WSW,248,2.0,2.0,66,0.00,,,0.00,WUHU216HW,2013-01-15 05:43:00,
2013-01-14 23:48:00,17.2,7.7,28.92,WSW,248,0.0,2.0,66,0.00,,,0.00,WUHU216HW,2013-01-15 05:48:00,
2013-01-14 23:53:00,17.2,7.7,28.92,WSW,248,0.0,3.1,66,0.00,,,0.00,WUHU216HW,2013-01-15 05:53:00,
2013-01-14 23:58:00,16.8,7.4,28.92,WSW,248,0.0,3.1,66,0.00,,,0.00,WUHU216HW,2013-01-15 05:58:00,